Arad, Romania

8:41 PM EEST on April 29, 2017 (GMT +0300)
Arad

Weather History for LRAR - April, 2014

Change the Weather History Date:

Wednesday, April 16, 2014

  Actual Average Record
Temperature  
Mean Temperature 42 °F -  
Max Temperature 53 °F 67 °F 77 °F (2015)
Min Temperature 32 °F 45 °F 28 °F (1997)
Degree Days  
Heating Degree Days 22    
Moisture  
Dew Point 40 °F    
Average Humidity 80    
Maximum Humidity 100    
Minimum Humidity 46    
Precipitation  
Precipitation 0.08 in - - ()
Sea Level Pressure  
Sea Level Pressure 29.98 in    
Wind  
Wind Speed 6 mph ()    
Max Wind Speed 20 mph    
Max Gust Speed 31 mph    
Visibility 6.6 miles    
Events Fog , Rain    
Averages and records for this station are not official NWS values.
T = Trace of Precipitation, MM = Missing Value Source: Averaged Metar Reports

Daily Weather History Graph

Daily Weather History Graph

Search for Another Location

Airport or City:

Trip Planner

Search our weather history database for the weather conditions in past years. The results will help you decide how hot, cold, wet, or windy it might be!

Date:

Astronomy

Apr. 16, 2014 Rise Set
Actual Time 6:47 AM EEST 8:23 PM EEST
Civil Twilight 6:15 AM EEST 8:54 PM EEST
Nautical Twilight 5:37 AM EEST 9:33 PM EEST
Astronomical Twilight 4:56 AM EEST 10:14 PM EEST
Moon 9:52 PM EEST (4/16) 7:19 AM EEST (4/16)
Length of Visible Light 14h 39m
Length of Day
13h 36m
Full, 99% of the Moon is Illuminated
Apr 16
Full
Apr 22
Last Quarter
Apr 29
New
May 7
First Quarter
May 14
Full

Hourly Weather History & Observations

Time (EEST) Temp. Windchill Dew Point Humidity Pressure Visibility Wind Dir Wind Speed Gust Speed Precip Events Conditions
12:00 AM 40 °F - 36 °F 82% 29.98 in 12 mi North 2.2 mph - -   Clear
12:00 AM 37.4 °F - 37.4 °F 100% 29.98 in 6.2 mi Calm Calm - N/A   Unknown
1:00 AM 38 °F - 36 °F 90% 29.99 in 12 mi Calm Calm - -   Clear
1:00 AM - - - N/A% 29.98 in 6.2 mi WNW 2.3 mph - N/A   Unknown
2:00 AM 35 °F - 34 °F 93% 29.99 in 12 mi Calm Calm - -   Clear
2:00 AM - - - N/A% 29.95 in 3.1 mi NW 4.6 mph - N/A   Unknown
3:00 AM 34 °F - 34 °F 100% 29.99 in 6 mi North 2.2 mph - -   Clear
3:00 AM - - - N/A% 29.98 in 6.2 mi NNE 4.6 mph - N/A   Unknown
4:00 AM 34 °F - 34 °F 100% 30.00 in 6 mi North 2.2 mph - -   Clear
4:00 AM - - - N/A% 29.98 in 5.0 mi NNE 4.6 mph - N/A   Unknown
5:00 AM 35 °F - 35 °F 97% 29.99 in 6 mi North 2.2 mph - -   Clear
5:00 AM - - - N/A% 29.98 in 2.8 mi NNE 2.3 mph - N/A   Mist
6:00 AM 35 °F - 35 °F 99% 29.99 in 6 mi North 2.2 mph - -   Clear
6:00 AM 32.0 °F - 32.0 °F 100% 29.98 in 6.2 mi North 1.2 mph - N/A Fog Shallow Fog
6:30 AM 30.2 °F - 30.2 °F 100% 29.98 in 5.0 mi Variable 2.3 mph - N/A Fog Fog
7:00 AM 34 °F - 34 °F 100% 30.00 in 2 mi North 2.2 mph - -   Mist
7:00 AM 32.0 °F - 32.0 °F 100% 29.98 in 5.0 mi NNW 1.2 mph - N/A Fog Fog
7:30 AM 33.8 °F - 33.8 °F 100% 29.98 in - NNE 2.3 mph - N/A   Clear
8:00 AM 35 °F - 35 °F 98% 30.01 in 2 mi NNE 2.2 mph - -   Mist
8:00 AM 33.8 °F 30.8 °F 33.8 °F 100% 29.98 in - North 3.5 mph - N/A   Clear
8:30 AM 39.2 °F - 39.2 °F 100% 30.01 in - Variable 2.3 mph - N/A   Clear
9:00 AM 37 °F - 36 °F 97% 30.02 in 2 mi North 2.2 mph - -   Mist
9:00 AM 39.2 °F 34.2 °F 39.2 °F 100% 30.01 in - NNE 6.9 mph - N/A   Clear
9:30 AM 42.8 °F 36.6 °F 42.8 °F 100% 30.01 in - NNE 11.5 mph - N/A   Clear
10:00 AM 41 °F - 38 °F 87% 30.02 in 2 mi North 6.7 mph - -   Mist
10:00 AM 42.8 °F 35.8 °F 42.8 °F 100% 30.01 in - NNE 13.8 mph - N/A   Clear
10:30 AM 44.6 °F 38.1 °F 42.8 °F 93% 30.01 in - NNE 13.8 mph - N/A   Clear
11:00 AM 44 °F - 39 °F 78% 30.03 in 2 mi North 8.9 mph - -   Mist
11:00 AM 46.4 °F 40.4 °F 42.8 °F 87% 30.01 in 6.2 mi NNE 13.8 mph - N/A   Partly Cloudy
11:30 AM 46.4 °F 40.7 °F 42.8 °F 87% 30.01 in 6.2 mi NNE 12.7 mph - N/A   Partly Cloudy
12:00 PM 47 °F - 40 °F 67% 30.02 in 6 mi North 6.7 mph - -   Overcast
12:00 PM 48.2 °F - 41.0 °F 76% 30.01 in 6.2 mi North 13.8 mph - N/A   Partly Cloudy
12:30 PM 50.0 °F - 41.0 °F 71% 30.01 in - North 13.8 mph - N/A   Clear
1:00 PM 50 °F - 39 °F 55% 30.01 in 6 mi North 6.7 mph - -   Scattered Clouds
1:00 PM 51.8 °F - 41.0 °F 67% 30.01 in - North 16.1 mph - N/A   Clear
1:30 PM 53.6 °F - 41.0 °F 62% 29.98 in - North 16.1 mph - N/A   Clear
2:00 PM 52 °F - 38 °F 48% 29.99 in 12 mi North 8.9 mph - -   Overcast
2:00 PM 53.6 °F - 39.2 °F 58% 29.98 in 6.2 mi North 18.4 mph 31.1 mph N/A   Partly Cloudy
2:30 PM 53.6 °F - 41.0 °F 62% 29.95 in 6.2 mi NE 17.3 mph - N/A   Scattered Clouds
3:00 PM 53 °F - 38 °F 46% 29.97 in 12 mi North 8.9 mph - -   Overcast
3:00 PM 53.6 °F - 41.0 °F 62% 29.95 in 6.2 mi NNE 18.4 mph - N/A   Partly Cloudy
3:30 PM 53.6 °F - 41.0 °F 62% 29.95 in 6.2 mi NNE 18.4 mph - N/A Rain Light Rain Showers
4:00 PM 49 °F - 43 °F 71% 29.97 in 12 mi ENE 4.5 mph - -   Overcast
4:00 PM 53.6 °F - 39.2 °F 58% 29.95 in 6.2 mi NE 16.1 mph - N/A   Partly Cloudy
4:30 PM 53.6 °F - 41.0 °F 62% 29.95 in 6.2 mi NE 18.4 mph - N/A   Partly Cloudy
5:00 PM 46 °F - 43 °F 87% 29.98 in 6 mi NE 6.7 mph - - Rain Light Rain Showers
5:00 PM 48.2 °F - 46.4 °F 93% 29.95 in 6.2 mi East 11.5 mph - N/A Rain Light Rain Showers
5:30 PM 50.0 °F - 46.4 °F 87% 29.95 in 6.2 mi ENE 6.9 mph - N/A   Partly Cloudy
6:00 PM 50 °F - 44 °F 71% 29.97 in 12 mi North 2.2 mph - - Rain Light Rain Showers
6:00 PM 50.0 °F - 44.6 °F 82% 29.95 in 6.2 mi NE 19.6 mph - N/A   Scattered Clouds
6:30 PM 51.8 °F - 42.8 °F 71% 29.95 in 6.2 mi NE 19.6 mph - N/A   Partly Cloudy
7:00 PM 50 °F - 41 °F 62% 29.96 in 12 mi NNE 8.9 mph - -   Overcast
7:00 PM 51.8 °F - 39.2 °F 62% 29.95 in 6.2 mi NE 16.1 mph - N/A   Partly Cloudy
7:30 PM 51.8 °F - 41.0 °F 67% 29.95 in 6.2 mi NE 11.5 mph - N/A Rain Light Rain Showers
8:00 PM 49 °F - 42 °F 67% 29.96 in 12 mi NNE 6.7 mph - -   Overcast
8:00 PM 51.8 °F - 41.0 °F 67% 29.95 in 6.2 mi ENE 11.5 mph - N/A Rain Light Rain Showers
8:30 PM 50.0 °F - 42.8 °F 76% 29.95 in 6.2 mi NE 6.9 mph - N/A Rain Light Rain Showers
9:00 PM 48 °F - 43 °F 75% 29.97 in 6 mi NE 4.5 mph - - Rain Light Rain Showers
9:00 PM 50.0 °F - 42.8 °F 76% 29.95 in 6.2 mi NNE 6.9 mph - N/A   Partly Cloudy
9:30 PM 50.0 °F - 44.6 °F 82% 29.98 in 6.2 mi NE 9.2 mph - N/A Rain Light Rain
10:00 PM 49 °F - 39 °F 60% 29.98 in 6 mi NNE 11.2 mph - - Rain Light Rain Showers
10:00 PM 48.2 °F - 42.8 °F 82% 29.98 in 6.2 mi NE 13.8 mph - N/A Rain Rain
11:00 PM 47 °F - 41 °F 74% 29.98 in 6 mi North 8.9 mph - - Rain Light Rain Showers
11:00 PM 46.4 °F 39.8 °F 44.6 °F 93% 29.98 in 6.2 mi NE 16.1 mph - N/A Rain Light Rain